Mammoth Lakes, CA

10:53 PM PST on February 10, 2016 (GMT -0800)
Mammoth Yosemite

Weather History for KMMH - October, 2013

Change the Weather History Date:

Saturday, October 12, 2013

  Actual Average (KBIH) Record (KBIH)
Temperature  
Mean Temperature 40 °F 58 °F  
Max Temperature 60 °F 78 °F 93 °F (1950)
Min Temperature 21 °F 39 °F 26 °F (2008)
Degree Days  
Heating Degree Days 24 7  
Month to date heating degree days 64  
Since 1 July heating degree days 107  
Cooling Degree Days 0 0  
Month to date cooling degree days 7  
Year to date cooling degree days 1103  
Moisture  
Dew Point 22 °F    
Average Humidity 47    
Maximum Humidity 93    
Minimum Humidity 15    
Precipitation  
Precipitation 0.00 in 0.01 in 0.25 in (2000)
Month to date precipitation 0.11  
Year to date precipitation 3.66  
Snow  
Snow 0.00 in 0.00 in - ()
Month to date snowfall 0.0  
Since 1 July snowfall 0.0  
Since 1 September snowfall 0.0  
Snow Depth -    
Sea Level Pressure  
Sea Level Pressure 30.04 in    
Wind  
Wind Speed 5 mph (WSW)    
Max Wind Speed 21 mph    
Max Gust Speed 31 mph    
Visibility 10 miles    
Events      
T = Trace of Precipitation, MM = Missing Value Source: NWS Daily Summary

Daily Weather History Graph

Daily Weather History Graph

Search for Another Location

Airport or City:

Trip Planner

Search our weather history database for the weather conditions in past years. The results will help you decide how hot, cold, wet, or windy it might be!

Date:

Astronomy

Oct. 12, 2013 Rise Set
Actual Time 7:01 AM PDT 6:21 PM PDT
Civil Twilight 6:34 AM PDT 6:48 PM PDT
Nautical Twilight 6:04 AM PDT 7:18 PM PDT
Astronomical Twilight 5:34 AM PDT 7:48 PM PDT
Moon 2:28 PM PDT (10/12) 12:16 AM PDT (10/12)
Length of Visible Light 12h 13m
Length of Day
11h 20m
First Quarter, 60% of the Moon is Illuminated
Oct 12
First Quarter
Oct 18
Full
Oct 26
Last Quarter
Nov 3
New
Nov 9
First Quarter

Hourly Weather History & Observations

Time (PDT) Temp. Windchill Dew Point Humidity Pressure Visibility Wind Dir Wind Speed Gust Speed Precip Events Conditions
12:15 AM 37.4 °F - 26.6 °F 65% 30.13 in 10.0 mi Calm Calm - N/A   Clear
12:35 AM 35.6 °F - 26.6 °F 70% 30.13 in 10.0 mi Calm Calm - N/A   Clear
12:55 AM 35.6 °F 32.8 °F 26.6 °F 70% 30.13 in 10.0 mi NW 3.5 mph - N/A   Clear
4:15 AM 26.6 °F - 23.0 °F 86% 30.10 in 10.0 mi Calm Calm - N/A   Clear
4:35 AM 28.4 °F - 23.0 °F 80% 30.10 in 10.0 mi Calm Calm - N/A   Clear
4:55 AM 26.6 °F - 23.0 °F 86% 30.10 in 10.0 mi North - - N/A   Clear
5:15 AM 24.8 °F - 21.2 °F 86% 30.10 in 10.0 mi North - - N/A   Clear
5:35 AM 24.8 °F - 21.2 °F 86% 30.10 in 10.0 mi North - - N/A   Clear
5:55 AM 21.2 °F - 17.6 °F 86% 30.10 in 10.0 mi Calm Calm - N/A   Clear
6:15 AM 23.0 °F 18.4 °F 21.2 °F 93% 30.10 in 10.0 mi NNW 3.5 mph - N/A   Clear
6:35 AM 23.0 °F 17.0 °F 21.2 °F 93% 30.10 in 10.0 mi North 4.6 mph - N/A   Clear
6:55 AM 21.2 °F - 17.6 °F 86% 30.10 in 10.0 mi Calm Calm - N/A   Clear
7:15 AM 23.0 °F - 19.4 °F 86% 30.10 in 10.0 mi Calm Calm - N/A   Clear
7:35 AM 23.0 °F 17.0 °F 19.4 °F 86% 30.11 in 10.0 mi North 4.6 mph - N/A   Clear
7:55 AM 28.4 °F - 23.0 °F 80% 30.11 in 10.0 mi Calm Calm - N/A   Clear
8:35 AM 33.8 °F 30.8 °F 24.8 °F 70% 30.11 in 10.0 mi ESE 3.5 mph - N/A   Clear
8:55 AM 37.4 °F 34.9 °F 26.6 °F 65% 30.11 in 10.0 mi SE 3.5 mph - N/A   Clear
9:15 AM 41.0 °F - 28.4 °F 61% 30.11 in 10.0 mi Calm Calm - N/A   Clear
9:35 AM 42.8 °F - 28.4 °F 57% 30.11 in 10.0 mi Calm Calm - N/A   Clear
9:55 AM 46.4 °F - 28.4 °F 50% 30.10 in 10.0 mi Calm Calm - N/A   Clear
10:15 AM 50.0 °F - 26.6 °F 40% 30.10 in 10.0 mi SE 4.6 mph - N/A   Clear
10:35 AM 50.0 °F - 24.8 °F 37% 30.10 in 10.0 mi SSE 4.6 mph - N/A   Clear
10:55 AM 51.8 °F - 24.8 °F 35% 30.09 in 10.0 mi SE 5.8 mph - N/A   Clear
11:15 AM 53.6 °F - 26.6 °F 35% 30.09 in 10.0 mi SE 3.5 mph - N/A   Clear
11:35 AM 53.6 °F - 24.8 °F 33% 30.08 in 10.0 mi ESE 4.6 mph - N/A   Clear
11:55 AM 55.4 °F - 23.0 °F 29% 30.07 in 10.0 mi SE 4.6 mph - N/A   Clear
12:15 PM 57.2 °F - 21.2 °F 25% 30.06 in 10.0 mi ESE 4.6 mph - N/A   Clear
12:35 PM 59.0 °F - 21.2 °F 23% 30.05 in 10.0 mi SE 5.8 mph - N/A   Clear
12:55 PM 59.0 °F - 23.0 °F 25% 30.03 in 10.0 mi ESE 9.2 mph - N/A   Clear
1:15 PM 59.0 °F - 23.0 °F 25% 30.02 in 10.0 mi ESE 11.5 mph - N/A   Clear
1:35 PM 60.8 °F - 23.0 °F 23% 30.01 in 10.0 mi ESE 12.7 mph - N/A   Clear
1:55 PM 60.8 °F - 21.2 °F 22% 30.00 in 10.0 mi SE 5.8 mph - N/A   Clear
2:15 PM 59.0 °F - 23.0 °F 25% 30.00 in 10.0 mi SE 3.5 mph - N/A   Clear
2:35 PM 60.8 °F - 23.0 °F 23% 30.00 in 10.0 mi South 3.5 mph - N/A   Clear
2:55 PM 60.8 °F - 14.0 °F 16% 29.99 in 10.0 mi West 20.7 mph 29.9 mph N/A   Clear
3:15 PM 60.8 °F - 12.2 °F 15% 29.99 in 10.0 mi West 13.8 mph 28.8 mph N/A   Clear
3:35 PM 60.8 °F - 12.2 °F 15% 29.99 in 10.0 mi West 17.3 mph 27.6 mph N/A   Clear
3:55 PM 60.8 °F - 14.0 °F 16% 29.99 in 10.0 mi West 18.4 mph 27.6 mph N/A   Clear
4:15 PM 59.0 °F - 14.0 °F 17% 29.99 in 10.0 mi West 16.1 mph 28.8 mph N/A   Clear
4:35 PM 57.2 °F - 15.8 °F 20% 29.99 in 10.0 mi West 19.6 mph 31.1 mph N/A   Clear
4:55 PM 57.2 °F - 15.8 °F 20% 29.99 in 10.0 mi West 11.5 mph 25.3 mph N/A   Clear
5:15 PM 55.4 °F - 15.8 °F 21% 29.99 in 10.0 mi West 11.5 mph 23.0 mph N/A   Clear
5:35 PM 55.4 °F - 14.0 °F 20% 29.99 in 10.0 mi WSW 10.4 mph 18.4 mph N/A   Clear
5:55 PM 53.6 °F - 14.0 °F 21% 29.98 in 10.0 mi SW 11.5 mph 23.0 mph N/A   Clear
6:15 PM 51.8 °F - 12.2 °F 21% 29.99 in 10.0 mi SW 11.5 mph 20.7 mph N/A   Clear
6:35 PM 48.2 °F - 15.8 °F 27% 29.99 in 10.0 mi WNW 4.6 mph - N/A   Clear
6:55 PM 46.4 °F 41.1 °F 19.4 °F 34% 29.99 in 10.0 mi WNW 11.5 mph - N/A   Clear
7:15 PM 48.2 °F - 17.6 °F 30% 29.98 in 10.0 mi SW 15.0 mph 21.9 mph N/A   Clear
7:35 PM 50.0 °F - 14.0 °F 24% 29.97 in 10.0 mi SSW 9.2 mph 21.9 mph N/A   Clear
7:55 PM 44.6 °F 37.2 °F 24.8 °F 46% 29.98 in 10.0 mi WNW 17.3 mph 20.7 mph N/A   Clear
8:15 PM 42.8 °F 38.0 °F 24.8 °F 49% 29.98 in 10.0 mi WNW 8.1 mph 18.4 mph N/A   Clear
8:35 PM 42.8 °F 39.3 °F 26.6 °F 53% 29.99 in 10.0 mi SW 5.8 mph - N/A   Clear
8:55 PM 41.0 °F - 23.0 °F 49% 29.99 in 10.0 mi Calm Calm - N/A   Clear
9:15 PM 41.0 °F 38.0 °F 24.8 °F 53% 29.99 in 10.0 mi NNE 4.6 mph - N/A   Clear
9:35 PM 41.0 °F 39.0 °F 21.2 °F 45% 29.99 in 10.0 mi NNW 3.5 mph - N/A   Clear
9:55 PM 39.2 °F 35.0 °F 23.0 °F 52% 30.00 in 10.0 mi NW 5.8 mph - N/A   Clear
10:15 PM 41.0 °F 38.0 °F 24.8 °F 53% 30.00 in 10.0 mi NW 4.6 mph - N/A   Clear
10:35 PM 41.0 °F - 23.0 °F 49% 30.00 in 10.0 mi Calm Calm - N/A   Clear
10:55 PM 39.2 °F 35.0 °F 24.8 °F 56% 30.01 in 10.0 mi WNW 5.8 mph - N/A   Clear
11:15 PM 39.2 °F 33.0 °F 26.6 °F 61% 30.00 in 10.0 mi NW 9.2 mph - N/A   Clear
11:35 PM 39.2 °F 34.2 °F 26.6 °F 61% 29.99 in 10.0 mi NW 6.9 mph - N/A   Clear
11:55 PM 41.0 °F 36.4 °F 23.0 °F 49% 29.96 in 10.0 mi South 6.9 mph - N/A   Clear